Flag for U.S.A. Weather past 2 weeks in Thousand Oaks, California, U.S.A.

Now
52 °F

Rain. Fog.


Feels Like: 52 °F
Forecast: 44 / 56 °F
Wind: 3 mph from Southwest

Location: Camarillo Airport

Current Time: Mar 1, 2015 at 8:26:41 PM

Latest Report: Mar 1, 2015 at 7:55 PM


Visibility: 5 mi

Pressure: 29.97 "Hg

Humidity: 89%

Dew point: 49 °F

Location of Thousand OaksLocation

Historic Weather in Thousand Oaks — Graph

°F

Thousand Oaks temperature yesterday

Maximum temperature yesterday: 64 °F (at 12:55 PM)
Minimum temperature yesterday: 46 °F (at 6:55 AM)
Average temperature yesterday: 56 °F

Past Weeks' High & Low Weather Summary

 TemperatureHumidityPressure
High73 °F (Feb 15, 1:55 PM)96% (Feb 19, 3:55 AM)30.29 "Hg (Feb 19, 3:55 AM)
Low43 °F (Feb 24, 2:55 AM)25% (Feb 24, 11:55 AM)29.74 "Hg (Feb 27, 6:55 PM)
Average58 °F72%30.01 "Hg
* Reported Feb 14 6:55 PM — Mar 1 6:55 PM, Thousand Oaks, Weather by CustomWeather, © 2015

Note: Actual official high and low records may vary slightly from our data, if they occured in-between our weather recording intervals... More about our weather records

Advertising

Thousand Oaks weather history for previous 24 hours

 ConditionsComfort  
Time TempWeatherWind HumidityBarometerVisibility
6:55 PM
Sun, Mar 1
52 °FLight rain. Mostly cloudy.8 mph86%29.96 "Hg7 mi
6:02 PM52 °FHeavy rain. Overcast.14 mph83%29.92 "Hg2 mi
5:55 PM52 °FRain. Mostly cloudy.15 mph83%29.95 "Hg2 mi
4:55 PM59 °FPartly sunny.8 mph58%29.92 "Hg10 mi
3:55 PM62 °FPartly sunny.10 mph54%29.92 "Hg10 mi
2:55 PM63 °FPassing clouds.10 mph48%29.91 "Hg10 mi
1:55 PM64 °FBroken clouds.15 mph47%29.90 "Hg10 mi
12:55 PM63 °FPassing clouds.9 mph48%29.92 "Hg10 mi
11:55 AM63 °FScattered clouds.N/A48%29.93 "Hg10 mi
10:55 AM62 °FSunny.7 mph52%29.96 "Hg10 mi
9:55 AM60 °FSunny.13 mph58%29.97 "Hg10 mi
8:55 AM56 °FSunny.9 mph70%29.97 "Hg10 mi
7:55 AM52 °FSunny.13 mph83%29.97 "Hg10 mi
6:55 AM49 °FSunny.12 mph86%29.96 "Hg10 mi
5:55 AM50 °FPassing clouds.10 mph83%29.95 "Hg10 mi
4:55 AM50 °FMostly cloudy.7 mph83%29.94 "Hg10 mi
3:55 AM50 °FLight rain. Overcast.7 mph83%29.94 "Hg3 mi
2:55 AM51 °FPassing clouds.10 mph80%29.93 "Hg10 mi
1:55 AM50 °FClear.9 mph86%29.93 "Hg10 mi
12:55 AM51 °FPassing clouds.8 mph86%29.93 "Hg10 mi
11:55 PM
Sat, Feb 28
51 °FPassing clouds.7 mph86%29.94 "Hg10 mi
10:55 PM53 °FOvercast.9 mph83%29.93 "Hg10 mi
9:55 PM54 °FLight rain. Mostly cloudy.3 mph80%29.92 "Hg10 mi
8:55 PM54 °FPartly cloudy.6 mph77%29.91 "Hg10 mi
Weather by CustomWeather, © 2015

See weather overviewHow to use our weather pages